Hourly Weather Biskira

Today, 26 September, Saturday

Time Temperature Precipitation Wind Pressure Humidity
00:00 +27°C° 0 mm 8 mps 751 mmHg 40%
01:00 +27°C° 0 mm 8 mps 751 mmHg 40%
02:00 +26°C° 0 mm 7 mps 751 mmHg 41%
03:00 +24°C° 0 mm 6 mps 751 mmHg 41%
04:00 +23°C° 0 mm 7 mps 751 mmHg 41%
05:00 +23°C° 0 mm 7 mps 751 mmHg 42%
06:00 +22°C° 0 mm 7 mps 751 mmHg 42%
07:00 +23°C° 0 mm 6 mps 752 mmHg 40%
08:00 +24°C° 0 mm 6 mps 752 mmHg 37%
09:00 +26°C° 0 mm 5 mps 752 mmHg 34%
10:00 +27°C° 0 mm 5 mps 752 mmHg 31%
11:00 +28°C° 0 mm 5 mps 752 mmHg 28%
12:00 +29°C° 0 mm 5 mps 752 mmHg 25%
13:00 +29°C° 0 mm 5 mps 751 mmHg 25%
14:00 +29°C° 0 mm 6 mps 751 mmHg 25%
15:00 +29°C° 0 mm 6 mps 750 mmHg 24%
16:00 +28°C° 0 mm 7 mps 750 mmHg 26%
17:00 +27°C° 0 mm 7 mps 750 mmHg 28%
18:00 +27°C° 0 mm 7 mps 750 mmHg 30%
19:00 +26°C° 0 mm 6 mps 750 mmHg 31%
20:00 +26°C° 0 mm 5 mps 750 mmHg 32%
21:00 +26°C° 0 mm 4 mps 750 mmHg 33%
22:00 +25°C° 0 mm 4 mps 750 mmHg 34%
23:00 +25°C° 0 mm 4 mps 750 mmHg 35%

Tomorrow, 27 September, Sunday

Time Temperature Precipitation Wind Pressure Humidity
00:00 +23°C° 0 mm 4 mps 750 mmHg 36%
01:00 +23°C° 0 mm 5 mps 749 mmHg 38%
02:00 +22°C° 0 mm 5 mps 749 mmHg 41%
03:00 +22°C° 0 mm 5 mps 748 mmHg 43%
04:00 +21°C° 0 mm 5 mps 748 mmHg 44%
05:00 +21°C° 0 mm 5 mps 748 mmHg 45%
06:00 +21°C° 0 mm 5 mps 748 mmHg 46%
07:00 +22°C° 0 mm 6 mps 748 mmHg 40%
08:00 +24°C° 0 mm 6 mps 749 mmHg 35%
09:00 +26°C° 0 mm 7 mps 749 mmHg 30%
10:00 +27°C° 0 mm 7 mps 749 mmHg 28%
11:00 +28°C° 0 mm 7 mps 749 mmHg 26%
12:00 +29°C° 0 mm 8 mps 748 mmHg 25%
13:00 +31°C° 0 mm 8 mps 748 mmHg 25%
14:00 +31°C° 0 mm 8 mps 748 mmHg 26%
15:00 +31°C° 0 mm 8 mps 748 mmHg 27%
16:00 +29°C° 0 mm 7 mps 748 mmHg 29%
17:00 +29°C° 0 mm 6 mps 748 mmHg 32%
18:00 +28°C° 0 mm 5 mps 748 mmHg 34%
19:00 +27°C° 0 mm 4 mps 749 mmHg 37%
20:00 +27°C° 0 mm 3 mps 749 mmHg 39%
21:00 +26°C° 0 mm 2 mps 750 mmHg 41%
22:00 +26°C° 0 mm 2 mps 750 mmHg 43%
23:00 +25°C° 0 mm 2 mps 750 mmHg 44%

Day after tomorrow, 28 September, Monday

Time Temperature Precipitation Wind Pressure Humidity
00:00 +25°C° 0 mm 2 mps 750 mmHg 46%
01:00 +24°C° 0 mm 3 mps 750 mmHg 47%
02:00 +24°C° 0 mm 3 mps 750 mmHg 48%
03:00 +24°C° 0 mm 3 mps 750 mmHg 49%
04:00 +22°C° 0 mm 3 mps 750 mmHg 51%
05:00 +22°C° 0 mm 3 mps 751 mmHg 52%
06:00 +22°C° 0 mm 3 mps 751 mmHg 54%
07:00 +24°C° 0 mm 3 mps 752 mmHg 48%
08:00 +25°C° 0 mm 3 mps 752 mmHg 41%
09:00 +26°C° 0 mm 3 mps 753 mmHg 35%
10:00 +27°C° 0 mm 3 mps 752 mmHg 30%
11:00 +28°C° 0 mm 3 mps 752 mmHg 25%
12:00 +29°C° 0 mm 3 mps 752 mmHg 20%
13:00 +30°C° 0 mm 4 mps 752 mmHg 19%
14:00 +30°C° 0 mm 4 mps 751 mmHg 19%
15:00 +32°C° 0 mm 4 mps 751 mmHg 18%
16:00 +30°C° 0 mm 4 mps 751 mmHg 20%
17:00 +29°C° 0 mm 3 mps 752 mmHg 22%
18:00 +28°C° 0 mm 3 mps 752 mmHg 23%
19:00 +28°C° 0 mm 3 mps 752 mmHg 24%
20:00 +27°C° 0 mm 2 mps 753 mmHg 25%
21:00 +27°C° 0 mm 1 mps 753 mmHg 26%
22:00 +26°C° 0 mm 1 mps 753 mmHg 27%
23:00 +26°C° 0 mm 1 mps 754 mmHg 27%

29 September, Tuesday

Time Temperature Precipitation Wind Pressure Humidity
00:00 +25°C° 0 mm 1 mps 754 mmHg 28%
01:00 +25°C° 0 mm 1 mps 753 mmHg 29%
02:00 +24°C° 0 mm 1 mps 753 mmHg 29%
03:00 +24°C° 0 mm 1 mps 753 mmHg 30%
04:00 +24°C° 0 mm 2 mps 753 mmHg 32%
05:00 +24°C° 0 mm 3 mps 754 mmHg 34%
06:00 +22°C° 0 mm 3 mps 754 mmHg 36%
07:00 +25°C° 0 mm 4 mps 754 mmHg 37%
08:00 +26°C° 0 mm 4 mps 754 mmHg 38%
09:00 +27°C° 0 mm 5 mps 755 mmHg 39%
10:00 +28°C° 0 mm 4 mps 754 mmHg 37%
11:00 +29°C° 0 mm 4 mps 754 mmHg 35%
12:00 +30°C° 0 mm 3 mps 754 mmHg 33%
13:00 +30°C° 0 mm 2 mps 753 mmHg 32%
14:00 +31°C° 0 mm 2 mps 753 mmHg 30%
15:00 +31°C° 0 mm 1 mps 752 mmHg 29%
16:00 +31°C° 0 mm 2 mps 753 mmHg 31%
17:00 +30°C° 0 mm 2 mps 753 mmHg 32%
18:00 +30°C° 0 mm 2 mps 753 mmHg 33%
19:00 +30°C° 0 mm 2 mps 753 mmHg 35%
20:00 +29°C° 0 mm 2 mps 753 mmHg 36%
21:00 +29°C° 0 mm 2 mps 753 mmHg 38%
22:00 +28°C° 0 mm 2 mps 753 mmHg 39%
23:00 +28°C° 0 mm 2 mps 753 mmHg 40%

30 September, Wednesday

Time Temperature Precipitation Wind Pressure Humidity
00:00 +27°C° 0 mm 1 mps 753 mmHg 41%
01:00 +27°C° 0 mm 1 mps 753 mmHg 42%
02:00 +27°C° 0 mm 1 mps 752 mmHg 43%
03:00 +26°C° 0 mm 1 mps 752 mmHg 44%
04:00 +26°C° 0 mm 1 mps 752 mmHg 44%
05:00 +26°C° 0 mm 1 mps 752 mmHg 44%
06:00 +26°C° 0 mm 1 mps 752 mmHg 44%
07:00 +27°C° 0 mm 2 mps 752 mmHg 40%
08:00 +29°C° 0 mm 2 mps 752 mmHg 36%
09:00 +30°C° 0 mm 2 mps 752 mmHg 32%
10:00 +31°C° 0 mm 2 mps 751 mmHg 30%
11:00 +32°C° 0 mm 2 mps 751 mmHg 27%
12:00 +34°C° 0 mm 2 mps 751 mmHg 24%
13:00 +35°C° 0 mm 2 mps 750 mmHg 22%
14:00 +35°C° 0 mm 1 mps 749 mmHg 21%
15:00 +36°C° 0 mm 1 mps 749 mmHg 19%
16:00 +36°C° 0 mm 2 mps 749 mmHg 20%
17:00 +35°C° 0 mm 3 mps 749 mmHg 22%
18:00 +34°C° 0 mm 4 mps 749 mmHg 24%
19:00 +34°C° 0 mm 4 mps 749 mmHg 24%
20:00 +34°C° 0 mm 4 mps 749 mmHg 25%
21:00 +33°C° 0 mm 4 mps 749 mmHg 25%
22:00 +33°C° 0 mm 4 mps 749 mmHg 26%
23:00 +32°C° 0 mm 4 mps 749 mmHg 27%

1 October, Thursday

Time Temperature Precipitation Wind Pressure Humidity
00:00 +32°C° 0 mm 4 mps 748 mmHg 28%
01:00 +30°C° 0 mm 4 mps 748 mmHg 29%
02:00 +30°C° 0 mm 3 mps 748 mmHg 31%
03:00 +29°C° 0 mm 2 mps 747 mmHg 33%
04:00 +29°C° 0 mm 2 mps 747 mmHg 33%
05:00 +28°C° 0 mm 2 mps 747 mmHg 34%
06:00 +28°C° 0 mm 1 mps 747 mmHg 35%
07:00 +29°C° 0 mm 2 mps 748 mmHg 33%
08:00 +31°C° 0 mm 3 mps 748 mmHg 30%
09:00 +34°C° 0 mm 4 mps 748 mmHg 28%
10:00 +35°C° 0 mm 4 mps 748 mmHg 27%
11:00 +36°C° 0 mm 5 mps 747 mmHg 25%
12:00 +37°C° 0 mm 5 mps 747 mmHg 24%
13:00 +38°C° 0 mm 6 mps 747 mmHg 23%
14:00 +38°C° 0 mm 6 mps 746 mmHg 22%
15:00 +38°C° 0 mm 7 mps 746 mmHg 22%
16:00 +36°C° 0 mm 6 mps 746 mmHg 22%
17:00 +35°C° 0 mm 5 mps 746 mmHg 22%
18:00 +34°C° 0 mm 4 mps 746 mmHg 23%
19:00 +34°C° 0 mm 4 mps 747 mmHg 24%
20:00 +33°C° 0 mm 4 mps 747 mmHg 25%
21:00 +33°C° 0 mm 3 mps 748 mmHg 26%
22:00 +32°C° 0 mm 4 mps 748 mmHg 28%
23:00 +30°C° 0 mm 4 mps 748 mmHg 30%
Show more